Flag for U.S.A. Weather past 2 weeks in Arlington, Texas, U.S.A.

Now
54 °F

Overcast.


Feels Like: 50 °F
Forecast: 38 / 59 °F
Wind: 14 mph from Southeast

Location: Arlington Municipal Airport

Current Time: Jan 31, 2015 at 11:55:40 PM

Latest Report: Jan 31, 2015 at 10:53 PM


Visibility: 8 mi

Pressure: 29.88 "Hg

Humidity: 86%

Dew point: 50 °F

Location of ArlingtonLocation

Historic Weather in Arlington — Graph

°F

Arlington temperature yesterday

Maximum temperature yesterday: 58 °F (at 3:53 PM)
Minimum temperature yesterday: 44 °F (at 6:53 AM)
Average temperature yesterday: 51 °F

Past Weeks' High & Low Weather Summary

 TemperatureHumidityPressure
High80 °F (Jan 28, 3:53 PM)90% (Jan 20, 6:53 AM)30.49 "Hg (Jan 20, 6:53 AM)
Low31 °F (Jan 18, 7:53 AM)15% (Jan 18, 4:53 PM)29.88 "Hg (Jan 31, 10:53 PM)
Average53 °F53%30.13 "Hg
* Reported Jan 16 10:53 PM — Jan 31 10:53 PM, Arlington, Weather by CustomWeather, © 2014

Note: Actual official high and low records may vary slightly from our data, if they occured in-between our weather recording intervals... More about our weather records

Advertising

Arlington weather history for previous 24 hours

 ConditionsComfort  
Time TempWeatherWind HumidityBarometerVisibility
10:53 PM
Jan 31
54 °FOvercast.14 mph86%29.88 "Hg8 mi
9:53 PM53 °FOvercast.9 mph86%29.90 "Hg8 mi
8:53 PM53 °FLight rain. Mostly cloudy.12 mph83%29.92 "Hg6 mi
7:53 PM52 °FLight rain. Overcast.13 mph86%29.93 "Hg7 mi
6:53 PM50 °FRain. Fog.8 mph89%29.95 "Hg5 mi
5:53 PM50 °FLight rain. Fog.5 mph89%29.98 "Hg4 mi
4:53 PM50 °FLight rain. Mostly cloudy.3 mph86%29.99 "Hg7 mi
3:53 PM50 °FLight rain. Mostly cloudy.5 mph83%30.00 "Hg6 mi
2:53 PM51 °FLight rain. Overcast.8 mph77%30.01 "Hg6 mi
1:53 PM52 °FOvercast.12 mph61%30.03 "Hg10 mi
12:53 PM52 °FOvercast.13 mph57%30.08 "Hg10 mi
11:53 AM52 °FOvercast.15 mph53%30.13 "Hg10 mi
10:53 AM51 °FMostly cloudy.12 mph50%30.17 "Hg10 mi
9:53 AM50 °FOvercast.15 mph50%30.19 "Hg10 mi
8:53 AM48 °FPassing clouds.14 mph54%30.18 "Hg10 mi
7:53 AM48 °FPassing clouds.10 mph52%30.19 "Hg10 mi
6:53 AM48 °FPassing clouds.10 mph52%30.19 "Hg10 mi
5:53 AM48 °FPassing clouds.13 mph50%30.19 "Hg10 mi
4:53 AM49 °FOvercast.8 mph48%30.20 "Hg10 mi
3:53 AM49 °FPassing clouds.9 mph48%30.21 "Hg10 mi
2:53 AM50 °FClear.7 mph46%30.23 "Hg10 mi
1:53 AM50 °FClear.8 mph46%30.24 "Hg10 mi
12:53 AM50 °FClear.7 mph44%30.27 "Hg10 mi
11:53 PM
Jan 30
51 °FClear.9 mph42%30.28 "Hg10 mi
Weather by CustomWeather, © 2014

See weather overviewHow to use our weather pages